Погода в Чистополье

Россия / Республика Крым     45°21′53″N   36°10′51″E
темп.,
°C
ветер,
м/с
пор.,
м/с
влажн.,
%
обл.,
%
осадки,
мм/ч
давл.,
гПа
погр.,
м
26 января, вт
вт2600:00+10ю81785100 0.3 1009641
03:00+10юз111879100 1.0 1010713
06:00+7ююз9156999 0.0 1013528
09:00+8ююз61269100 0.0 1014399
12:00+11ю61071100 0.0 1014493
15:00+11ююв101564100 0.0 1012763
18:00+9ю71480100 0.0 1012447
21:00+10ю61184100 0.0 1011304
27 января, ср
ср2700:00+9ю51084100 0.0 1011278
03:00+9ююв4986100 0.0 1009243
06:00+9ююв51087100 0.0 1007250
09:00+10ююв51182100 0.0 1007347
12:00+12ююв101565100 0.0 1005599
15:00+12юв101566100 0.0 1003607
18:00+10ююв111776100 0.0 1003483
21:00+10ююв71670100 0.0 1001514
28 января, чт
чт2800:00+10юв7167197 0.0 1000557
03:00+13ю10204999 0.0 1000921
06:00+8юз61289100 0.0 1001503
09:00+8юз71175100 0.0 1003910
12:00+8юз101361100 0.0 10051104
15:00+7юз91355100 0.0 10071076
18:00+5юз71258100 0.0 10091080
21:00+4юз5106652 0.0 1009404
29 января, пт
пт2900:00+4юз6126935 0.1 1009608
03:00+4юз7146718 0.3 1009755
06:00+4юз9146897 0.2 10081163
09:00+5юз11166898 0.4 10091412
12:00+6юз101465100 0.6 10091554
15:00+7юз111458100 0.9 10081652
18:00+6юз91466100 0.1 10071130
21:00+6ююз111768100 0.2 10061327
30 января, сб
сб3000:00+6ююз141984100 0.6 10051222
03:00+6ююз121783100 2.4 10041003
06:00+6юз101489100 2.5 1004753
09:00+7юз51183100 3.4 1005568
12:00+8ююз81175100 0.2 1004922
15:00+9ю91358100 0.4 10021240
18:00+8ю71268100 0.1 1001802
21:00+8ю51276100 0.2 1000695